THOR ABLESTAR DEB, 467

Orbit data source: Space-Track

THOR ABLESTAR DEB, 467 is space debris in LEO originally from a launch on Thu, 29 Jun 1961 UTC launched from the Air Force Eastern Test Range (AFETR). Debris objects in space refer to the collection of defunct objects orbiting the Earth. Examples of debris include non-operational satellites, rocket bodies, and fragments generated from explosions, collisions, or faulty payload assembly.

Loading next visibility...
Identifier
467, 1961-015FD
Orbit
LEO
Country
Flag of USUS
Related business
Manufacturer
Unknown
Mission
Spacecraft
Bus & Motor
Unknown
Mass
Unknown
Launch date (UTC)
1961-06-29 (65 years ago)
Launch vehicle
Unknown
Launch site
Air Force Eastern Test Range (AFETR)
Object type
Payload
Rocket body
Debris
Shape & HBR
Unknown shape, 0.1 m
Radar Cross Section
Medium (>0.1 m² and <1 m²)

Expand to show TLE details & history
Last TLE update: 9 hours ago

TLE from 9 hours ago
0 THOR ABLESTAR DEB
1   467U 61015FD  26263.16404038  .00000521  00000-0  67567-3 0  9997
2   467  66.5570 226.3555 0247945 260.7912  96.5028 13.57696685293835
Epoch: 2026-09-20T03:56Z
TLE epoch observation values (Epoch: 2026-09-20T03:56:13.088Z)
Latitude
-0.00002°
Longitude
168.2388°
Altitude
1,071.428 km
Speed
7.304 km/s
True Right ascension
15h 05m 25s
True Declination
0° 00' 00"
Sunlit
Object was in daylight at epoch
Visualization orbit readout
Latitude
Unknown
Longitude
Unknown
Altitude
Unknown
Speed
Unknown
Apparent Right ascension
Unknown
Apparent Declination
Unknown
Sunlit
N/A
Visualization observer readout
Local Sidereal Time
05:55:29
Azimuth
Unknown
Elevation
Unknown
Doppler factor
Unknown
Orbital elements
Apogee altitude
1,226.511 km
Perigee altitude
858.528 km
Semi-major axis
7,420.657 km
Eccentricity
0.02479
Inclination
66.557°
RAAN
226.3555°
Arg. of periapsis
260.7912°
True anomaly
99.31476°
Mean anomaly
96.5028°
Eccentric anomaly
97.9099°
Mean motion
3.39531 °/min
Orbital period
106.03 mins
BSTAR
0.00067567
Loading maneuver chart data...
Computing Atmospheric mass density...

Documentation

Showing up to 5 results
|